FENGYUN 3A

Last updated on Fri Sep 11 2026 00:02:39 GMT+0000 (Coordinated Universal Time)

1 32958U 08026A 26253.47287188 .00000029 00000+0 34358-4 0 9993 2 32958 98.6926 192.7245 0007660 239.3127 120.7295 14.19586043947507
UTC large
Height (km)
Speed (km/s)
/
Latitude / Longitude
Inclination (degrees)
Orbital Period (minutes)
Azimuth
Elevation
Range (km)
Doppler Factor

Next 0 passes for location: London (51.5072 / 0.1276)

No passes found over London.
FENGYUN 3A